Theta_e
287 287 288 289 289 290 290 291 291 291 291 291 290 289 289 289 289 289 289 289 290 290 290 291 291 291 291 292 291 290 290 289 289 288 289 289 288 288 288 287 287 287 287 287 286 286 285 285 284 284 284 283 283 283 283 283 282 282 282 282 282 282
286 286 286 287 288 288 290 290 290 290 290 290 290 290 290 290 290 289 289 289 289 290 290 290 290 291 291 291 291 289 289 289 289 288 288 288 288 288 287 287 287 287 286 286 286 285 285 284 284 284 283 283 283 282 282 282 281 281 281 281 281 281
286 286 286 287 287 288 289 289 288 289 289 289 290 289 290 290 290 289 289 289 289 289 289 289 289 289 290 290 289 289 289 288 288 288 288 288 287 287 287 286 286 286 286 286 285 285 284 284 283 283 283 282 282 282 282 281 281 280 281 281 280 280
285 285 286 286 286 286 286 288 288 288 288 289 289 289 289 289 290 289 289 289 289 289 289 289 288 288 288 288 289 288 289 288 288 288 287 287 287 287 287 286 286 286 286 286 285 285 284 284 283 283 282 282 282 281 282 281 280 280 281 280 279 279
284 284 284 285 285 285 286 286 287 287 287 287 288 288 288 289 289 290 289 289 288 288 288 288 288 288 288 288 288 288 288 288 288 287 287 287 286 286 286 286 286 286 286 285 285 285 284 284 283 283 282 282 282 281 281 281 280 280 280 280 279 279
283 284 284 284 284 285 285 286 286 286 286 286 287 287 288 288 289 289 289 289 288 288 287 287 288 287 287 287 288 288 288 288 288 287 287 287 287 286 286 286 286 285 285 285 285 284 284 284 283 283 282 282 282 282 281 281 280 280 281 280 280 280
282 282 283 283 284 284 285 285 285 285 285 285 286 286 287 288 288 288 288 289 288 288 287 287 287 287 287 287 288 288 288 288 288 288 287 287 286 286 286 285 286 285 285 284 284 284 284 284 283 283 282 282 282 282 282 281 281 280 281 281 280 281
282 282 282 283 283 283 284 285 285 285 285 284 285 285 286 287 287 287 288 288 288 288 288 287 287 287 287 287 287 288 288 288 288 288 287 287 286 286 285 285 285 285 285 285 285 285 284 284 284 283 282 282 282 282 282 282 281 281 281 281 281 280
282 282 282 283 283 283 283 284 284 284 284 284 284 285 285 286 286 286 286 287 287 287 287 287 287 287 287 287 287 287 287 287 287 287 287 287 286 286 285 285 285 285 285 285 285 284 284 284 284 283 283 282 282 282 281 281 281 280 280 281 281 280
282 282 282 283 283 283 283 284 284 284 284 283 284 284 285 285 285 285 285 285 286 286 286 286 287 287 287 287 287 287 287 287 287 287 287 287 286 286 286 285 285 285 285 285 285 285 285 284 284 283 283 283 282 282 281 281 281 280 280 280 280 280
281 282 282 283 283 283 284 284 284 284 284 284 283 284 284 285 284 284 284 284 284 285 285 286 286 287 286 286 286 286 286 287 286 286 287 286 286 286 286 286 285 284 284 285 284 284 284 284 284 283 283 282 282 282 281 281 281 280 280 280 280 280
282 282 282 282 283 283 284 284 284 284 284 284 284 283 284 284 284 284 284 284 284 284 285 285 285 285 285 286 286 286 286 286 286 286 286 286 286 286 286 285 285 285 284 284 284 284 284 284 284 284 285 285 282 281 281 281 281 281 280 280 280 279
282 281 281 281 282 283 283 284 284 284 284 284 284 284 284 284 283 283 283 283 283 284 284 284 284 284 284 285 285 285 285 286 286 286 285 285 285 285 285 284 284 284 284 284 284 283 283 284 284 285 286 286 286 283 282 281 281 281 280 280 279 279
281 281 281 281 282 282 283 284 284 284 284 284 284 284 284 284 284 283 283 283 283 283 283 283 283 283 283 284 284 284 284 284 284 285 285 285 285 284 284 284 284 284 284 284 283 283 283 283 285 286 287 287 287 285 282 282 281 280 280 280 279 279
281 281 281 282 282 283 283 284 283 283 284 284 284 284 284 283 283 283 283 283 283 283 283 283 282 282 282 283 283 283 283 283 283 284 284 284 285 284 284 284 284 284 284 283 283 283 284 283 286 287 287 287 287 287 284 281 281 280 280 280 279 279
282 282 282 282 283 283 283 284 283 283 284 284 284 283 283 283 283 283 283 283 283 282 282 282 281 281 281 282 282 282 282 282 282 283 283 283 284 284 284 284 283 283 283 283 283 283 283 283 285 287 287 287 287 288 286 282 281 280 280 279 279 279
282 281 281 282 282 283 283 283 283 283 283 283 283 283 282 283 282 282 282 282 282 282 282 282 282 281 281 281 281 281 281 281 281 282 283 283 283 283 283 283 283 283 283 283 283 283 283 283 285 286 287 287 287 288 287 283 281 280 280 279 279 278
282 281 281 282 282 282 283 283 283 282 282 283 282 282 281 282 282 282 282 282 282 282 282 282 282 282 281 281 281 280 281 281 281 281 281 282 282 282 282 282 282 282 282 283 282 282 282 283 285 286 286 287 287 288 286 283 281 280 279 279 278 278
282 282 282 281 281 281 281 282 282 282 282 281 281 281 281 281 281 281 281 281 282 282 282 282 282 281 281 282 281 281 281 281 280 281 281 280 281 281 281 281 282 282 282 282 282 281 281 282 284 286 286 287 287 287 285 284 281 280 279 278 278 277
282 281 281 280 280 281 281 281 280 280 280 280 280 280 279 280 279 280 281 281 281 281 281 282 282 281 281 281 281 281 281 281 281 281 281 280 280 280 280 280 279 279 279 280 280 281 281 281 282 285 286 286 287 286 284 283 281 279 278 278 277 277
281 281 280 280 279 280 280 279 278 278 278 279 279 279 278 278 279 279 279 280 281 281 281 281 282 282 281 281 281 281 281 281 281 281 280 280 279 279 280 279 278 278 278 278 279 281 280 280 281 283 285 286 287 286 284 283 281 279 278 277 276 276
279 278 279 279 279 280 279 279 278 277 278 278 278 277 277 278 278 279 279 280 279 280 280 281 281 281 281 281 281 281 281 281 280 280 280 280 279 278 278 278 278 277 277 277 277 278 279 279 279 281 284 285 286 287 285 283 280 278 277 277 276 275
278 278 278 278 278 278 278 278 278 278 278 277 277 276 277 277 278 278 278 278 278 278 278 280 280 280 280 280 281 281 280 280 280 280 279 278 278 278 277 277 277 277 277 277 277 277 277 278 278 279 282 284 285 286 286 282 280 279 278 276 275 275
276 276 276 277 277 277 277 276 276 276 276 276 275 276 277 277 277 277 277 276 276 276 277 277 278 279 279 280 280 279 279 280 280 279 278 278 277 277 277 277 276 276 276 276 276 276 276 278 279 278 281 283 285 286 287 283 280 279 278 276 275 275
274 274 275 275 275 275 276 275 274 275 275 274 275 276 276 276 276 276 275 275 275 275 275 276 276 277 278 278 279 278 278 278 278 278 277 276 276 276 276 276 276 276 275 275 275 275 275 276 277 280 279 281 284 285 286 285 282 282 278 276 275 275
273 273 273 274 274 274 274 273 273 273 273 273 275 275 275 274 274 274 274 274 273 274 274 274 275 275 276 276 276 276 275 276 277 278 277 277 276 276 275 276 276 275 275 275 275 275 275 275 276 278 280 280 282 284 286 286 284 283 279 277 276 276
271 272 272 272 272 272 272 272 271 271 271 273 274 273 273 273 273 272 272 272 272 272 272 273 273 273 273 273 273 273 274 274 276 276 277 276 275 275 275 275 275 275 274 275 274 275 275 275 275 275 278 280 281 283 285 286 285 283 282 277 276 276
270 269 269 270 271 271 271 271 271 269 271 272 272 272 271 271 270 270 270 270 270 270 271 270 270 270 270 271 271 272 273 273 274 275 276 276 275 275 275 275 275 275 274 274 274 274 275 274 274 274 275 277 279 281 283 284 285 284 282 280 277 278
268 268 268 268 269 270 270 270 270 270 271 270 271 270 269 268 268 268 268 268 268 268 268 268 268 268 269 269 270 270 272 273 274 275 275 276 275 275 275 275 275 275 275 274 275 275 275 274 273 273 274 275 276 278 280 282 283 284 282 279 277 278
266 266 267 267 268 269 269 268 268 269 269 269 269 268 266 266 266 266 265 265 266 266 266 266 267 267 267 267 268 269 270 271 273 274 274 275 275 275 275 275 275 275 275 275 275 275 274 273 273 273 273 274 275 276 278 280 281 281 280 277 276 276
265 265 265 266 267 267 266 266 266 267 266 266 266 265 264 263 264 264 263 263 264 263 265 265 265 265 266 266 267 268 269 270 271 273 274 276 277 276 276 275 276 276 276 276 276 275 274 273 273 273 276 275 277 276 277 278 280 280 279 277 278 275
264 263 263 263 264 263 263 263 263 263 264 263 263 262 261 261 261 261 261 261 262 262 263 263 264 264 265 265 266 267 268 271 274 274 273 273 277 279 281 280 277 277 278 277 277 277 276 275 276 278 278 278 279 280 280 280 282 282 279 279 280 277
261 260 260 260 261 260 260 260 260 260 260 260 260 260 259 259 259 259 259 260 260 261 262 262 262 263 263 264 264 265 265 266 268 273 275 275 276 277 280 281 282 282 282 280 277 278 281 281 280 279 279 279 280 280 281 281 282 283 281 280 277 275
258 258 258 258 258 258 258 257 258 258 258 259 258 259 258 258 258 257 258 258 259 260 260 260 261 261 261 262 263 263 263 264 264 265 270 273 274 276 278 280 282 282 282 283 282 280 278 280 281 281 280 280 280 280 281 281 282 283 281 281 280 273
257 257 257 257 257 256 256 256 257 257 258 258 258 258 257 257 257 257 257 257 258 259 259 259 259 260 260 260 261 261 262 262 263 263 264 268 273 275 277 279 280 281 282 283 283 283 282 280 280 281 281 280 280 281 281 281 282 283 282 281 277 273
256 256 256 256 256 256 256 256 257 257 257 258 258 257 257 257 257 257 257 257 258 258 258 259 259 259 260 260 260 261 261 261 261 261 262 262 263 266 270 275 278 280 281 282 283 283 283 283 282 281 281 281 280 281 281 281 280 283 282 280 275 273
256 255 256 256 256 256 256 255 256 257 257 257 257 257 256 257 257 257 258 259 259 258 259 259 260 260 260 261 261 261 262 262 263 264 264 264 264 265 266 268 271 276 279 279 280 282 283 283 283 281 281 281 281 281 281 282 279 278 278 278 276 274
255 255 255 255 255 255 255 255 257 257 257 257 257 257 256 257 257 257 257 258 258 258 259 259 259 260 260 260 261 261 262 263 264 264 265 266 267 268 268 269 271 272 276 279 280 281 282 282 283 282 281 281 281 281 281 277 276 277 277 276 275 273
Wind_Speed
11 11 11 10 10 10 9 10 11 12 12 12 11 12 11 10 7 6 6 7 6 6 8 8 9 9 9 8 8 7 9 10 10 11 11 9 10 10 10 10 11 11 11 11 10 10 11 10 9 9 9 10 10 10 10 10 10 10 10 9 9 8
8 7 7 8 10 10 6 3 5 11 11 13 14 15 15 13 12 9 8 7 6 7 6 7 8 8 9 9 8 8 10 10 10 10 10 12 9 11 11 12 13 12 11 10 11 11 10 10 9 9 9 9 10 9 9 10 11 11 11 10 8 7
9 9 6 3 2 3 4 13 18 18 19 21 19 18 17 17 15 12 10 8 7 7 8 9 7 9 8 9 9 10 10 9 9 10 10 8 11 10 11 11 11 11 11 11 13 11 11 10 10 9 8 10 10 10 10 9 11 12 10 10 10 9
14 12 11 12 16 19 20 18 18 19 18 16 16 16 15 14 15 14 13 10 8 8 8 9 7 7 7 9 9 11 10 9 10 10 9 12 10 11 13 11 12 11 11 11 11 11 11 11 11 10 10 11 11 12 8 10 12 12 11 10 11 12
13 12 15 16 17 17 16 16 16 15 14 14 13 15 17 16 13 13 12 11 10 10 9 8 8 7 8 9 9 10 11 10 10 9 11 11 9 10 11 12 12 11 12 11 10 11 11 12 12 11 11 11 12 12 11 10 12 13 13 13 13 12
10 13 16 16 16 16 16 13 11 11 12 12 12 14 14 15 15 15 14 13 12 10 9 9 8 8 8 9 9 11 11 10 10 9 10 10 9 10 10 11 13 12 12 12 13 12 12 13 13 13 12 13 12 12 12 11 11 12 12 13 13 14
14 13 11 11 11 11 11 12 12 12 12 12 12 11 11 11 11 12 14 14 14 13 11 10 9 8 9 10 9 10 10 10 10 9 10 10 10 11 10 10 11 13 12 12 13 13 14 14 13 13 13 12 12 13 12 11 11 12 13 13 13 13
6 8 9 8 8 8 9 10 11 11 12 13 11 12 12 12 12 12 12 13 14 15 15 12 10 9 9 10 10 11 10 10 9 10 9 10 11 11 11 12 11 12 13 12 13 14 13 11 12 13 12 13 12 12 12 11 11 12 12 11 12 13
13 10 8 6 5 5 5 6 8 9 11 13 13 11 11 11 12 13 12 13 12 12 15 15 14 12 10 10 9 9 8 9 9 10 10 10 11 11 11 11 12 12 13 14 12 12 12 12 12 12 13 12 12 13 13 13 12 12 13 14 12 11
9 10 11 11 11 9 7 5 6 6 7 9 10 12 11 10 11 12 12 12 12 12 12 12 12 12 12 10 10 9 9 9 9 9 10 9 11 11 12 12 13 13 12 13 13 14 12 13 12 12 12 12 12 15 16 14 14 13 15 15 16 15
5 7 8 8 8 9 10 10 10 9 9 8 8 8 10 10 11 11 11 12 13 13 12 12 11 10 11 11 10 10 10 9 8 9 8 9 9 9 11 12 12 12 13 13 13 13 13 14 15 13 13 13 15 16 17 14 13 12 12 11 11 12
6 6 6 7 8 9 9 8 9 9 10 11 11 11 10 9 10 10 11 12 12 12 13 13 12 13 12 13 13 13 11 10 9 8 8 8 9 9 9 10 11 12 14 13 13 13 12 13 12 15 21 17 16 16 15 15 16 17 13 13 12 11
9 8 7 7 7 8 8 8 8 7 7 8 9 10 10 8 9 8 8 10 10 11 11 12 13 13 14 13 12 12 13 13 10 9 8 8 8 9 9 10 11 12 11 13 13 14 13 13 12 18 19 24 22 16 15 16 15 15 13 12 12 12
8 9 10 10 9 8 7 7 8 8 9 9 9 9 8 9 9 9 8 8 8 9 10 10 12 13 13 13 13 13 12 11 11 10 8 8 7 8 8 9 11 11 11 10 12 13 13 13 14 17 21 23 24 20 15 13 12 13 14 11 11 10
7 8 9 9 10 9 8 6 6 7 7 9 9 8 8 8 8 9 9 9 9 10 9 10 11 11 11 11 12 11 11 11 11 11 11 10 8 6 6 9 9 10 10 11 12 13 13 13 12 18 21 23 24 24 19 12 13 12 13 10 11 10
7 7 7 8 9 9 8 6 6 6 5 7 7 8 8 8 9 8 9 8 9 9 9 9 9 10 11 11 11 11 11 11 11 10 10 9 9 7 7 7 9 9 10 11 12 12 13 13 13 18 20 22 24 24 21 14 14 14 14 11 11 10
8 7 8 8 8 9 9 9 7 6 6 6 7 7 7 8 8 8 8 8 8 8 8 9 8 9 10 10 10 10 11 10 11 11 10 8 9 9 8 8 8 8 8 9 9 11 11 11 13 17 21 22 23 24 21 14 14 12 13 10 10 10
8 8 9 7 6 8 7 9 8 7 9 7 8 8 7 8 8 8 7 7 7 8 9 8 9 9 9 9 9 9 10 10 10 11 10 9 9 7 7 8 7 8 9 9 9 10 12 10 12 17 20 22 23 24 15 13 14 14 13 10 10 11
7 9 8 8 8 8 9 8 7 8 9 10 9 9 9 7 8 8 7 8 8 8 8 8 9 9 9 9 10 10 10 10 11 10 7 8 9 10 9 9 8 7 7 8 9 10 11 10 12 17 20 22 24 19 13 13 12 13 13 10 9 9
7 7 8 9 10 9 8 7 7 7 8 10 10 10 11 9 10 9 8 8 8 9 10 9 9 9 9 9 9 10 10 9 8 8 7 7 9 9 10 9 9 8 7 8 9 10 11 11 10 16 19 21 23 19 14 12 12 13 13 12 9 8
7 8 8 8 10 11 8 8 7 7 8 9 10 11 11 12 10 9 9 9 9 10 10 9 10 10 10 10 10 8 9 9 9 9 7 7 7 9 8 7 8 9 7 8 10 9 11 10 9 14 18 21 23 19 13 12 11 12 13 11 11 8
6 7 9 10 11 10 9 7 7 7 9 10 8 9 12 12 11 9 9 9 9 9 10 10 11 11 10 11 12 10 10 9 8 9 8 8 6 7 7 8 8 10 9 7 8 9 10 10 8 10 18 20 23 24 14 11 12 14 13 11 9 10
6 9 10 10 10 10 9 8 8 11 11 11 10 13 13 10 10 10 10 10 9 10 11 10 10 12 12 11 11 10 9 9 9 10 9 9 8 7 7 8 8 8 9 8 8 8 9 9 9 9 17 20 23 25 23 11 13 12 11 11 11 9
8 9 10 10 11 11 9 8 10 12 12 11 13 15 11 9 10 9 9 10 11 11 11 11 11 11 11 11 10 10 11 10 10 10 10 8 8 10 10 9 7 8 8 7 7 8 9 8 11 9 15 21 23 24 30 15 13 13 12 12 12 10
10 12 12 11 9 8 9 8 11 13 13 15 17 13 9 9 9 10 10 11 12 12 12 12 12 13 11 11 10 11 13 12 11 11 9 10 10 10 12 11 9 7 8 7 7 7 7 8 8 15 12 19 24 25 28 23 14 18 13 13 13 13
10 12 13 13 10 9 9 8 12 13 15 18 16 10 9 9 10 11 12 12 12 13 13 12 12 12 11 11 12 13 14 14 12 11 10 9 9 9 10 10 9 8 8 9 8 6 6 6 6 11 17 15 22 24 26 26 21 21 14 12 12 10
11 13 14 14 13 11 10 9 11 14 17 17 11 10 10 11 12 12 13 14 14 14 13 12 12 12 11 12 12 13 14 15 13 12 10 9 9 10 10 10 8 9 9 8 9 8 7 6 7 7 12 19 20 23 24 26 27 24 23 14 11 10
10 12 15 17 16 14 10 10 9 14 16 13 11 10 10 11 13 14 15 14 14 14 13 15 15 14 13 13 11 12 13 14 14 13 12 9 9 10 10 11 9 9 9 9 9 9 8 7 5 7 8 11 15 17 23 26 26 27 25 19 12 14
13 15 16 18 17 14 11 11 11 12 12 13 12 11 11 11 13 14 14 15 14 14 13 15 14 14 14 14 13 12 13 13 12 12 12 11 11 11 10 11 10 10 10 10 10 9 8 7 6 6 8 9 9 11 13 16 16 23 24 15 10 13
13 15 16 18 18 15 14 14 13 12 12 12 11 10 10 12 14 15 16 17 15 14 14 14 15 17 15 15 13 14 14 13 12 12 13 13 11 11 11 11 11 11 11 11 10 9 8 7 7 8 9 10 11 11 10 11 11 9 12 9 10 10
16 17 17 18 16 15 16 15 14 12 12 12 12 13 16 17 19 18 19 19 17 17 16 15 14 14 14 14 15 14 14 14 14 13 13 13 11 12 12 12 12 12 11 10 10 10 10 10 10 13 14 13 15 13 11 11 11 9 11 13 17 12
14 16 18 20 17 17 17 17 15 12 11 11 12 14 18 20 20 20 21 18 17 17 16 14 13 13 12 13 12 13 13 17 24 19 16 15 19 25 26 22 16 14 11 10 12 11 13 14 13 11 18 20 21 23 23 19 18 16 13 18 27 17
16 16 18 17 13 16 13 17 16 16 13 14 14 14 14 17 17 18 18 17 16 16 15 12 12 10 10 11 12 11 14 13 15 24 30 29 28 29 30 29 30 31 29 18 14 13 20 20 13 13 19 22 24 25 25 24 23 23 24 27 19 15
18 16 19 18 16 17 16 16 16 16 14 14 12 15 15 15 16 16 16 16 14 15 17 12 14 12 14 11 12 11 13 12 15 15 22 28 29 30 31 31 31 31 29 30 26 18 10 17 23 19 20 22 25 25 26 25 26 25 28 31 29 14
16 14 15 15 18 18 19 17 18 14 15 15 15 14 16 16 15 18 17 16 16 15 18 17 16 16 13 13 13 12 13 14 13 13 16 16 21 27 28 28 29 30 31 30 30 31 25 17 16 23 22 23 24 25 25 26 28 27 30 33 20 15
15 17 16 16 17 20 18 17 18 17 16 16 16 16 15 18 18 18 15 13 13 15 16 16 15 15 15 15 16 15 16 16 15 16 17 17 17 17 21 26 29 29 29 29 30 29 28 28 25 23 24 24 24 25 25 25 21 26 31 29 17 14
17 16 17 19 19 17 17 18 16 17 15 16 15 17 15 18 16 16 18 27 25 17 17 16 16 15 16 15 14 14 15 16 16 16 16 16 16 15 15 14 15 20 26 22 21 25 29 27 27 25 23 25 24 24 25 25 15 16 18 21 16 15
16 16 17 16 17 14 18 16 17 15 16 15 16 16 17 15 16 13 14 13 17 16 15 14 13 14 15 15 16 16 16 16 14 13 12 14 14 14 14 15 14 13 14 24 25 27 26 28 27 25 24 23 25 24 25 14 12 13 14 15 14 14
Wind_Direction
26 20 17 9 8 356 352 349 360 15 20 10 7 359 348 333 321 288 267 251 247 247 237 238 244 241 242 239 235 220 215 212 211 210 212 200 197 198 196 194 196 196 197 201 207 206 209 205 203 195 195 191 195 192 194 181 180 186 189 184 183 185
21 17 10 6 1 357 333 316 7 28 20 17 14 12 12 5 354 334 299 277 260 258 255 244 233 240 240 237 231 228 224 220 216 214 211 211 198 202 191 195 200 197 194 194 201 202 201 203 203 197 198 193 203 191 191 185 178 187 189 181 182 175
29 26 14 348 261 243 358 16 19 17 16 16 14 11 7 5 357 348 327 303 287 269 261 254 240 238 235 235 228 232 231 226 219 217 217 203 210 194 196 197 195 195 198 197 201 198 196 197 197 197 199 202 202 198 196 179 187 188 190 173 181 182
16 17 20 17 16 18 17 14 16 17 16 10 5 5 8 3 357 353 341 326 304 286 272 265 255 244 237 238 236 235 234 228 221 218 210 213 209 194 203 198 197 195 194 198 202 197 195 197 200 196 199 205 203 202 192 191 187 192 187 179 182 183
13 13 17 17 16 14 14 15 14 10 8 7 6 4 359 358 357 355 350 343 327 309 294 284 271 257 246 240 241 240 238 235 230 216 217 218 211 204 203 199 195 194 195 197 197 195 196 194 195 197 199 205 204 204 202 196 189 189 185 186 189 180
13 20 17 14 13 9 8 6 8 7 6 5 2 4 359 356 354 352 356 356 347 330 314 303 289 278 262 252 246 246 242 238 235 221 223 222 212 210 207 201 200 195 194 197 197 195 197 197 198 196 197 203 202 207 207 202 199 198 196 191 182 180
17 17 15 14 10 6 3 4 1 3 1 2 2 0 355 356 353 353 352 354 355 353 345 322 305 292 278 266 262 255 250 244 239 227 224 219 218 214 206 208 203 203 199 200 198 198 200 200 196 195 195 195 200 206 208 207 204 203 203 197 191 184
13 13 8 7 7 5 0 358 358 358 358 357 357 355 355 357 356 354 357 356 355 354 354 349 334 312 291 280 274 266 260 254 245 238 229 219 223 217 212 209 205 207 207 206 205 204 203 198 197 202 200 197 195 199 204 207 208 207 206 203 200 193
3 360 2 3 360 360 356 351 353 355 354 353 355 354 354 353 355 354 356 355 355 353 351 347 346 336 322 304 286 277 268 257 249 241 237 224 223 221 215 212 212 213 214 213 209 208 201 199 200 201 200 198 196 197 198 200 204 212 214 212 205 200
343 349 349 349 352 350 353 357 354 356 356 352 349 348 351 353 352 352 353 352 351 352 349 344 337 338 333 325 313 298 279 267 257 247 241 231 227 224 221 215 214 216 213 217 213 212 206 204 205 203 201 197 195 201 205 202 202 204 215 219 213 208
317 328 336 338 336 346 348 349 352 352 353 355 350 349 350 346 349 348 352 350 350 348 342 340 338 336 336 332 330 321 308 291 270 261 250 238 234 228 226 222 216 217 217 217 215 213 209 211 210 206 201 199 201 203 204 201 199 197 203 207 216 215
329 316 319 330 338 342 347 350 349 351 348 346 347 346 345 351 345 345 344 348 345 341 339 338 338 339 338 341 339 336 328 317 303 282 262 248 238 234 228 224 221 219 219 216 216 214 213 217 215 212 206 199 200 200 203 204 206 203 199 200 199 206
323 325 324 328 337 338 343 343 340 339 339 340 342 338 336 340 334 335 335 334 337 333 336 338 339 338 339 339 336 334 334 328 321 305 289 270 250 239 232 224 226 223 221 219 216 215 217 219 219 212 204 205 200 197 203 204 207 207 205 202 199 199
310 321 324 327 331 334 337 338 336 337 337 337 335 330 326 328 329 327 323 320 326 331 334 335 334 335 333 336 336 334 330 327 323 316 301 286 273 255 236 232 231 229 224 223 222 222 223 224 220 208 208 206 203 199 201 205 207 207 212 209 202 197
297 301 311 317 322 325 323 325 323 325 326 330 324 324 323 319 320 319 317 320 325 329 331 330 333 329 329 329 329 328 328 328 324 319 315 302 285 271 255 245 239 236 231 225 227 229 228 230 211 209 210 207 205 202 198 208 207 206 212 208 207 199
288 293 298 306 310 314 312 310 301 293 303 306 312 319 315 316 313 311 308 311 319 322 325 325 326 324 322 322 323 327 326 327 324 316 308 303 299 284 266 252 243 242 236 232 232 234 234 232 223 212 210 207 206 203 198 209 207 211 213 208 204 201
290 298 299 300 303 305 312 311 308 305 305 302 304 303 302 304 304 303 299 303 310 317 318 321 318 316 316 316 318 321 322 322 321 320 315 312 303 295 283 268 260 247 241 243 240 242 241 236 219 211 211 208 206 205 200 207 210 212 215 209 205 202
279 287 290 287 291 294 295 298 304 310 306 308 300 298 298 296 298 296 295 299 303 309 313 314 313 310 312 312 314 315 317 318 316 314 314 312 301 287 281 279 265 258 249 242 240 243 246 242 218 214 213 209 208 204 204 207 210 213 213 205 201 199
275 278 282 287 287 290 294 294 300 300 304 307 305 304 300 299 295 295 295 296 305 307 307 306 304 304 305 310 313 315 314 315 313 309 307 304 302 303 294 282 270 266 259 250 243 241 246 244 224 218 212 211 208 204 207 208 210 215 214 206 197 197
272 276 275 282 284 282 289 291 288 296 296 299 302 305 302 302 297 297 297 297 304 308 307 304 298 297 299 301 304 304 305 303 298 293 300 296 295 291 284 286 287 275 263 254 248 239 244 243 227 222 217 212 208 202 205 206 209 213 213 212 198 195
274 283 287 282 284 286 286 284 286 289 288 293 299 300 298 295 298 298 298 301 303 304 303 299 296 297 300 300 297 298 297 296 295 294 290 278 272 274 279 273 269 270 263 256 250 247 244 247 235 224 223 216 211 207 206 205 207 211 213 207 206 197
302 296 288 288 287 294 295 293 289 279 279 282 282 285 284 286 290 292 294 295 298 299 300 298 297 297 298 299 298 298 294 293 294 287 285 276 264 265 263 266 264 264 261 250 248 246 241 244 237 224 224 221 216 211 206 205 204 212 208 202 199 197
288 285 287 288 293 297 297 295 293 287 284 285 285 278 276 282 287 291 292 291 294 296 296 297 297 299 299 295 292 292 293 292 289 290 286 283 277 266 259 249 249 249 257 250 245 246 242 236 233 223 221 223 221 216 211 206 209 208 200 202 200 199
291 287 286 284 287 289 290 289 285 283 284 284 278 277 289 290 288 289 289 290 291 292 293 294 294 295 294 293 291 293 291 291 287 281 280 277 276 273 269 262 250 248 251 249 233 237 242 234 228 221 220 222 223 220 218 212 210 199 195 199 204 199
295 290 286 287 285 284 284 287 283 283 285 281 277 287 295 287 291 288 289 291 291 291 290 290 293 293 292 292 294 295 292 291 289 281 271 268 269 268 270 268 262 254 254 249 227 221 233 232 233 224 218 221 223 223 223 213 200 199 196 200 205 203
285 286 287 286 286 287 284 283 281 281 281 278 284 296 295 294 291 290 290 288 287 290 289 288 287 286 288 292 296 296 291 287 283 277 270 262 258 263 262 264 263 261 262 260 259 238 219 221 217 229 225 222 224 228 227 223 203 197 199 201 210 204
289 291 290 289 288 286 284 278 276 278 276 279 295 297 300 297 292 290 287 287 288 287 286 288 286 285 287 286 288 288 287 285 284 280 272 253 254 251 253 256 251 250 255 258 256 261 248 228 226 225 232 228 225 228 230 231 219 203 195 198 207 194
294 291 289 291 290 289 289 285 277 277 278 291 297 299 297 294 292 288 285 284 283 284 287 288 287 284 283 283 280 277 278 280 279 275 274 264 251 251 248 255 249 246 246 247 249 245 240 227 205 221 224 230 229 228 230 233 229 214 206 193 190 185
301 296 295 295 294 297 297 291 285 280 289 295 302 304 300 293 291 289 288 287 286 285 284 283 284 286 285 283 283 277 273 272 269 265 266 263 259 254 249 251 250 247 244 242 243 239 230 214 205 208 213 218 225 223 225 227 238 218 208 196 177 175
296 295 297 294 295 302 301 297 295 297 301 304 307 313 314 304 297 294 291 288 288 285 282 280 277 278 280 279 277 279 278 273 267 263 259 258 256 254 254 248 245 243 241 245 243 240 232 221 209 203 204 211 213 220 217 222 227 207 193 180 171 170
302 300 299 296 302 307 306 304 304 310 316 319 324 320 314 304 299 295 290 287 285 281 279 277 275 274 273 273 272 265 263 266 270 268 267 256 251 250 254 256 253 246 243 240 241 237 236 235 224 217 204 207 205 206 211 210 210 192 186 176 168 160
306 308 306 303 308 308 305 306 307 312 318 320 316 313 304 299 295 290 285 283 281 280 280 279 276 272 270 271 271 273 270 261 265 267 267 271 262 254 248 245 249 249 248 246 240 227 230 233 233 215 205 209 210 215 214 213 205 195 178 173 176 164
311 307 302 303 308 303 302 300 302 305 308 306 300 296 286 287 287 285 283 283 280 282 283 282 280 276 274 273 275 274 276 281 270 265 268 267 270 269 265 258 254 253 250 243 250 240 232 240 238 202 203 209 214 214 215 215 213 201 179 175 172 173
309 307 305 305 302 299 298 295 294 298 296 292 287 285 282 280 282 283 282 282 283 285 283 282 282 282 281 279 276 274 278 278 283 280 267 267 268 268 267 264 258 255 254 253 249 249 239 237 238 226 212 216 212 212 214 215 214 206 179 179 173 171
300 297 295 293 293 294 293 292 293 295 290 288 284 279 278 273 270 275 277 276 278 279 279 278 279 278 276 276 276 276 275 277 277 280 288 279 271 272 271 264 259 255 253 250 250 249 246 233 223 226 224 216 211 211 212 213 214 210 181 177 177 185
292 292 291 289 288 289 291 291 292 292 286 285 280 278 273 275 273 272 274 276 273 274 273 274 274 274 271 269 268 268 269 267 266 267 268 274 279 276 271 268 264 259 254 252 250 248 247 243 232 225 222 218 214 212 210 211 213 211 186 183 184 182
290 289 287 287 290 291 290 288 286 284 283 283 280 277 274 275 272 271 271 272 275 275 274 274 272 273 274 275 272 269 268 264 260 259 260 259 262 268 272 272 262 257 257 256 252 249 246 243 238 225 222 221 215 212 209 209 209 212 195 192 185 183
287 287 289 289 289 286 287 285 286 286 287 284 282 278 278 276 275 272 272 272 270 270 269 269 267 267 267 268 269 272 274 278 281 282 283 283 278 268 257 258 258 258 254 253 254 250 246 242 241 228 218 218 217 214 208 203 204 210 201 197 191 182